Wednesday, April 25, 2018, 5:05 AM EDT
Back to Local

KLEW, Auburn-lewiston

Location: Auburn, ME, United States Lat: 44.05
Local Time: 5:05 AM EDT ( 9:05 GMT) Lon: -70.283
Time Zone: US/Eastern Elev: 288 ft

Show me the last for .
Show Decoded

2018-04-25 03:56 METAR KLEW 250756Z AUTO 17007KT 10SM CLR 09/03 A3016 RMK AO2 SLP230 T00890028 =
2018-04-25 02:56 METAR KLEW 250656Z AUTO 16008KT 10SM CLR 09/02 A3016 RMK AO2 SLP230 T00890022 =
2018-04-25 01:56 METAR KLEW 250556Z AUTO 17008KT 10SM CLR 09/02 A3017 RMK AO2 SLP232 T00890017
                 10128 20089 58007 =
2018-04-24 23:56 METAR KLEW 250356Z AUTO 14006KT 10SM CLR 10/02 A3019 RMK AO2 SLP238 T01000022
                 402171033 =
2018-04-24 22:56 METAR KLEW 250256Z AUTO 14007KT 10SM CLR 10/02 A3019 RMK AO2 SLP239 T01000022
                 50002 =
2018-04-24 21:56 METAR KLEW 250156Z AUTO 16006KT 10SM CLR 11/03 A3020 RMK AO2 SLP241 T01110028 =
2018-04-24 20:56 METAR KLEW 250056Z AUTO 16009KT 10SM CLR 12/02 A3019 RMK AO2 SLP240 T01170022 =
2018-04-24 19:56 METAR KLEW 242356Z AUTO 16008KT 10SM CLR 13/02 A3018 RMK AO2 SLP239 T01280022
                 10211 20128 55002 =
2018-04-24 19:31 METAR KLEW 242331Z AUTO 17011KT 10SM FEW001 14/02 A3018 RMK AO2 =
2018-04-24 18:56 METAR KLEW 242256Z AUTO 16011KT 10SM 15/02 A3018 RMK AO2 SLP236 T01500022 =
2018-04-24 17:56 METAR KLEW 242156Z AUTO 17011G16KT 10SM FEW002 16/01 A3019 RMK AO2 SLP241
                 T01610011 =
2018-04-24 17:52 METAR KLEW 242152Z AUTO 16011KT 10SM FEW002 16/01 A3019 RMK AO2 =
2018-04-24 16:56 METAR KLEW 242056Z AUTO 17015G22KT 10SM CLR 17/M01 A3019 RMK AO2 SLP240
                 T01721006 56012 =
2018-04-24 15:56 METAR KLEW 241956Z AUTO 17013G20KT 10SM FEW002 19/00 A3020 RMK AO2 SLP244
                 T01940000 =
2018-04-24 14:56 METAR KLEW 241856Z AUTO 18013G20KT 10SM FEW002 21/M01 A3020 RMK AO2 SLP245
                 T02111011 =
2018-04-24 14:47 METAR KLEW 241847Z AUTO 16012G19KT 10SM FEW002 21/M01 A3020 RMK AO2 =
2018-04-24 13:56 METAR KLEW 241756Z AUTO 15010G17KT 10SM CLR 21/M01 A3022 RMK AO2 SLP251
                 T02111006 10217 20056 56030 =
2018-04-24 12:56 METAR KLEW 241656Z AUTO 20011G18KT 10SM CLR 22/M06 A3025 RMK AO2 SLP260
                 T02171061 =
2018-04-24 11:56 METAR KLEW 241556Z AUTO VRB06KT 10SM FEW002 20/M03 A3028 RMK AO2 SLP269
                 T02001028 =
2018-04-24 11:32 METAR KLEW 241532Z AUTO 20006KT 10SM FEW002 19/M02 A3030 RMK AO2 =
2018-04-24 10:56 METAR KLEW 241456Z AUTO 19009KT 10SM 18/M02 A3031 RMK AO2 SLP281 T01781022 58013
                 =
2018-04-24 09:56 METAR KLEW 241356Z AUTO 16003KT 10SM FEW002 13/M02 A3033 RMK AO2 SLP289
                 T01331017 =
2018-04-24 09:46 METAR KLEW 241346Z AUTO 16004KT 10SM FEW002 13/M02 A3034 RMK AO2 =
2018-04-24 08:56 METAR KLEW 241256Z AUTO 02003KT 10SM 09/M02 A3035 RMK AO2 SLP294 T00941022 $ =
2018-04-24 07:56 METAR KLEW 241156Z AUTO 00000KT 10SM SCT002 06/M03 A3035 RMK AO2 SLP294
                 T00561033 10056 21033 53002 =
2018-04-24 07:05 METAR KLEW 241105Z AUTO 01003KT 10SM SCT002 02/M03 A3035 RMK AO2 FZRANO =
2018-04-24 06:56 METAR KLEW 241056Z AUTO 00000KT 10SM BKN002 01/M04 A3035 RMK AO2 SLP294
                 T00111039 FZRANO =
2018-04-24 06:37 METAR KLEW 241037Z AUTO 00000KT 10SM SCT002 M01/M04 A3035 RMK AO2 FZRANO =
2018-04-24 05:56 METAR KLEW 240956Z AUTO 18003KT 10SM CLR M03/M05 A3034 RMK AO2 SLP292 T10281050
                 FZRANO =

Support USWX by starting your Amazon purchase here.